AC5JC-1 Weather Reports


Display with metric or nautical units.
time (UTC)temp
F
wind
direction
speed
MPH
gust
MPH
rain 1hr
in
rain 24hr
in
rain mn
in
humidity
%
barometer
mb
20260831222534 101 177 2.0 3.0 0.00 0.00 0.00 33 1014.2
20260831222053 101 98 1.0 5.0 0.00 0.00 0.00 34 1014.1
20260831221535 101 157 2.0 6.0 0.00 0.00 0.00 34 1014.1
20260831221033 102 197 2.0 3.0 0.00 0.00 0.00 33 1014.2
20260831220636 104 173 2.0 8.0 0.00 0.00 0.00 32 1014.4
20260831220056 103 164 1.0 2.0 0.00 0.00 0.00 32 1014.5
20260831215533 103 175 1.0 3.0 0.00 0.00 0.00 32 1014.3
20260831215033 102 188 2.0 8.0 0.00 0.00 0.00 32 1014.5
20260831214534 102 225 2.0 5.0 0.00 0.00 0.00 31 1014.6
20260831214024 102 180 2.0 6.0 0.00 0.00 0.00 32 1014.5
20260831213607 102 174 2.0 3.0 0.00 0.00 0.00 34 1014.7
20260831213048 102 157 2.0 5.0 0.00 0.00 0.00 33 1014.7
20260831212534 103 187 2.0 3.0 0.00 0.00 0.00 31 1014.8
20260831212034 102 187 2.0 5.0 0.00 0.00 0.00 31 1014.9
20260831211554 101 145 2.0 10.0 0.00 0.00 0.00 34 1014.7
20260831211032 102 204 2.0 2.0 0.00 0.00 0.00 33 1014.7
20260831210616 103 162 2.0 7.0 0.00 0.00 0.00 32 1014.8
20260831210056 102 180 2.0 3.0 0.00 0.00 0.00 33 1014.9
20260831205534 101 191 1.0 2.0 0.00 0.00 0.00 33 1015.0
20260831205033 102 178 2.0 3.0 0.00 0.00 0.00 33 1015.1
20260831204534 102 175 2.0 5.0 0.00 0.00 0.00 33 1015.3
20260831204033 103 208 2.0 3.0 0.00 0.00 0.00 32 1015.3
20260831203521 102 171 2.0 6.0 0.00 0.00 0.00 33 1015.4
20260831203104 102 178 2.0 2.0 0.00 0.00 0.00 33 1015.5
20260831202534 101 193 2.0 3.0 0.00 0.00 0.00 34 1015.4
20260831202034 101 192 2.0 5.0 0.00 0.00 0.00 34 1015.6
20260831201554 101 206 2.0 6.0 0.00 0.00 0.00 34 1015.5
20260831201033 103 189 2.0 5.0 0.00 0.00 0.00 33 1015.6
20260831200553 103 187 2.0 5.0 0.00 0.00 0.00 33 1015.7
20260831200034 102 200 2.0 3.0 0.00 0.00 0.00 33 1015.7
20260831195533 101 201 1.0 5.0 0.00 0.00 0.00 34 1015.8
20260831195053 100 207 2.0 6.0 0.00 0.00 0.00 35 1015.9
20260831194614 102 210 1.0 3.0 0.00 0.00 0.00 34 1015.8
20260831194034 102 179 3.0 6.0 0.00 0.00 0.00 34 1015.9
20260831193520 102 194 1.0 2.0 0.00 0.00 0.00 32 1016.0
20260831193104 100 243 2.0 5.0 0.00 0.00 0.00 33 1016.1
20260831192544 101 201 2.0 5.0 0.00 0.00 0.00 33 1016.2
20260831192053 101 191 2.0 5.0 0.00 0.00 0.00 34 1016.2
20260831191534 101 201 2.0 6.0 0.00 0.00 0.00 34 1016.3
20260831191033 100 186 3.0 6.0 0.00 0.00 0.00 34 1016.2
20260831190548 100 188 2.0 6.0 0.00 0.00 0.00 33 1016.3
20260831190112 100 188 2.0 5.0 0.00 0.00 0.00 34 1016.3
20260831185551 100 185 2.0 3.0 0.00 0.00 0.00 35 1016.3
20260831185033 100 196 2.0 3.0 0.00 0.00 0.00 35 1016.4
20260831184533 100 191 2.0 3.0 0.00 0.00 0.00 34 1016.5
20260831184033 100 199 3.0 5.0 0.00 0.00 0.00 35 1016.6
20260831183533 99 238 2.0 6.0 0.00 0.00 0.00 36 1016.7
20260831183120 99 178 2.0 5.0 0.00 0.00 0.00 37 1016.8
20260831182600 100 188 2.0 3.0 0.00 0.00 0.00 36 1016.8
20260831182033 99 183 2.0 3.0 0.00 0.00 0.00 36 1016.9
20260831181535 98 243 2.0 5.0 0.00 0.00 0.00 37 1017.0
20260831181034 98 186 2.0 5.0 0.00 0.00 0.00 37 1017.0
20260831180534 99 183 2.0 5.0 0.00 0.00 0.00 37 1017.2
20260831180034 99 197 2.0 3.0 0.00 0.00 0.00 37 1017.4
20260831175553 99 184 2.0 3.0 0.00 0.00 0.00 36 1017.4
20260831175120 99 200 1.0 2.0 0.00 0.00 0.00 39 1017.4
20260831174620 98 189 2.0 3.0 0.00 0.00 0.00 37 1017.5
20260831174100 99 185 2.0 3.0 0.00 0.00 0.00 38 1017.6
20260831173533 98 197 1.0 3.0 0.00 0.00 0.00 38 1017.6
20260831173140 98 199 2.0 2.0 0.00 0.00 0.00 39 1017.6
20260831172620 98 180 2.0 2.0 0.00 0.00 0.00 39 1017.5
20260831172039 97 203 2.0 3.0 0.00 0.00 0.00 40 1017.7
20260831171535 97 196 2.0 3.0 0.00 0.00 0.00 40 1017.8
20260831171034 97 195 2.0 5.0 0.00 0.00 0.00 41 1017.8
20260831170553 97 161 2.0 5.0 0.00 0.00 0.00 41 1017.8
20260831170034 97 185 2.0 3.0 0.00 0.00 0.00 40 1017.9
20260831165521 96 180 1.0 2.0 0.00 0.00 0.00 42 1017.8
20260831165104 96 200 2.0 3.0 0.00 0.00 0.00 43 1017.8
20260831164544 95 210 1.0 2.0 0.00 0.00 0.00 44 1017.9
20260831164033 94 176 1.0 2.0 0.00 0.00 0.00 45 1017.9
20260831163534 95 193 2.0 2.0 0.00 0.00 0.00 44 1018.0
20260831163033 94 191 1.0 3.0 0.00 0.00 0.00 45 1017.9
20260831162534 94 179 1.0 3.0 0.00 0.00 0.00 45 1017.9
20260831162033 93 179 1.0 3.0 0.00 0.00 0.00 46 1018.0
20260831161555 93 190 1.0 2.0 0.00 0.00 0.00 46 1018.0
20260831161033 93 190 1.0 2.0 0.00 0.00 0.00 46 1018.0
20260831160533 93 188 1.0 3.0 0.00 0.00 0.00 46 1018.1
20260831160033 92 194 1.0 2.0 0.00 0.00 0.00 46 1018.1
20260831155521 92 187 2.0 3.0 0.00 0.00 0.00 47 1018.0
20260831155124 92 207 2.0 5.0 0.00 0.00 0.00 48 1018.0
20260831154534 92 174 2.0 3.0 0.00 0.00 0.00 50 1018.1
20260831154033 91 177 1.0 2.0 0.00 0.00 0.00 50 1018.1
20260831153533 91 175 1.0 2.0 0.00 0.00 0.00 51 1018.0
20260831153032 91 197 2.0 3.0 0.00 0.00 0.00 51 1018.0
20260831152615 90 169 1.0 2.0 0.00 0.00 0.00 52 1018.1
20260831152055 90 183 1.0 2.0 0.00 0.00 0.00 54 1017.8
20260831151535 89 182 1.0 2.0 0.00 0.00 0.00 55 1017.8
20260831151034 89 184 2.0 5.0 0.00 0.00 0.00 56 1018.0
20260831150533 88 174 1.0 2.0 0.00 0.00 0.00 60 1018.0
20260831150033 88 177 1.0 2.0 0.00 0.00 0.00 60 1018.0
20260831145520 87 166 0.0 1.0 0.00 0.00 0.00 62 1017.8
20260831145104 87 173 0.0 1.0 0.00 0.00 0.00 63 1017.9
20260831144544 86 172 1.0 2.0 0.00 0.00 0.00 64 1018.0
20260831144033 86 177 1.0 2.0 0.00 0.00 0.00 64 1017.9
20260831143533 86 173 1.0 2.0 0.00 0.00 0.00 64 1018.0
20260831143035 85 183 1.0 2.0 0.00 0.00 0.00 65 1017.9
20260831142528 85 174 1.0 2.0 0.00 0.00 0.00 66 1017.9
20260831142152 85 206 1.0 3.0 0.00 0.00 0.00 66 1017.8
20260831141553 85 182 1.0 2.0 0.00 0.00 0.00 66 1017.7
20260831141053 84 176 1.0 1.0 0.00 0.00 0.00 68 1017.7
20260831140533 84 173 1.0 2.0 0.00 0.00 0.00 68 1017.8
20260831140034 84 173 1.0 3.0 0.00 0.00 0.00 68 1017.8
20260831135533 84 180 1.0 2.0 0.00 0.00 0.00 68 1017.7
20260831135120 84 174 1.0 1.0 0.00 0.00 0.00 70 1017.7
20260831134600 83 184 1.0 2.0 0.00 0.00 0.00 70 1017.6
20260831134033 83 176 0.0 2.0 0.00 0.00 0.00 70 1017.5
20260831133533 83 173 1.0 2.0 0.00 0.00 0.00 71 1017.5
20260831133034 82 175 1.0 1.0 0.00 0.00 0.00 71 1017.5
20260831132533 81 171 1.0 3.0 0.00 0.00 0.00 72 1017.3
20260831132033 81 183 2.0 3.0 0.00 0.00 0.00 73 1017.2
20260831131534 80 177 1.0 1.0 0.00 0.00 0.00 75 1017.2
20260831131120 79 179 1.0 1.0 0.00 0.00 0.00 76 1017.1
20260831130620 78 178 1.0 2.0 0.00 0.00 0.00 77 1017.0
20260831130041 78 177 1.0 1.0 0.00 0.00 0.00 77 1016.8
20260831125521 78 173 1.0 1.0 0.00 0.00 0.00 77 1016.8
20260831125104 77 176 1.0 2.0 0.00 0.00 0.00 78 1016.8
20260831124545 77 177 1.0 1.0 0.00 0.00 0.00 78 1016.6
20260831124033 77 179 0.0 1.0 0.00 0.00 0.00 78 1016.6
20260831123520 77 179 1.0 1.0 0.00 0.00 0.00 78 1016.4
20260831123104 77 179 1.0 1.0 0.00 0.00 0.00 78 1016.3
20260831122636 77 180 1.0 2.0 0.00 0.00 0.00 78 1016.4
20260831122116 77 170 0.0 1.0 0.00 0.00 0.00 78 1016.2
20260831121535 77 174 0.0 1.0 0.00 0.00 0.00 77 1016.1
20260831121033 77 170 1.0 2.0 0.00 0.00 0.00 77 1016.1
20260831120553 77 169 1.0 1.0 0.00 0.00 0.00 77 1016.0
20260831120034 77 178 1.0 2.0 0.00 0.00 0.00 77 1015.9
20260831115533 77 174 1.0 2.0 0.00 0.00 0.00 77 1015.9
20260831115053 77 173 0.0 1.0 0.00 0.00 0.00 77 1015.9
20260831114534 77 174 1.0 1.0 0.00 0.00 0.00 77 1016.0
20260831114033 77 175 1.0 1.0 0.00 0.00 0.00 77 1015.9
20260831113554 77 174 1.0 1.0 0.00 0.00 0.00 77 1015.9
20260831113034 77 175 0.0 1.0 0.00 0.00 0.00 76 1015.9
20260831112534 77 175 0.0 1.0 0.00 0.00 0.00 75 1015.8
20260831112053 77 175 0.0 1.0 0.00 0.00 0.00 75 1015.8
20260831111534 77 174 0.0 1.0 0.00 0.00 0.00 75 1015.6
20260831111034 78 175 0.0 1.0 0.00 0.00 0.00 74 1015.6
20260831110533 78 175 1.0 1.0 0.00 0.00 0.00 74 1015.6
20260831110054 78 175 1.0 1.0 0.00 0.00 0.00 74 1015.8
20260831105521 78 175 0.0 1.0 0.00 0.00 0.00 74 1015.8
20260831105124 78 177 0.0 1.0 0.00 0.00 0.00 74 1015.8
20260831104534 78 179 0.0 1.0 0.00 0.00 0.00 74 1015.7
20260831104033 78 179 0.0 1.0 0.00 0.00 0.00 75 1015.6
20260831103534 78 179 0.0 1.0 0.00 0.00 0.00 75 1015.6
20260831103034 78 179 0.0 1.0 0.00 0.00 0.00 74 1015.6
20260831102529 78 179 0.0 1.0 0.00 0.00 0.00 74 1015.6
20260831102112 78 0.0 0.0 0.00 0.00 0.00 75 1015.5
20260831101552 78 0.0 0.0 0.00 0.00 0.00 75 1015.6
20260831101033 78 0.0 0.0 0.00 0.00 0.00 74 1015.6
20260831100533 79 0.0 0.0 0.00 0.00 0.00 72 1015.5
20260831100034 80 0.0 0.0 0.00 0.00 0.00 72 1015.4
20260831095521 80 180 0.0 1.0 0.00 0.00 0.00 71 1015.4
20260831095104 80 180 0.0 1.0 0.00 0.00 0.00 70 1015.4
20260831094545 81 180 0.0 1.0 0.00 0.00 0.00 70 1015.5
20260831094033 81 180 0.0 1.0 0.00 0.00 0.00 69 1015.4
20260831093534 81 180 1.0 1.0 0.00 0.00 0.00 69 1015.5
20260831093034 80 179 1.0 1.0 0.00 0.00 0.00 69 1015.4
20260831092529 81 179 0.0 1.0 0.00 0.00 0.00 69 1015.4
20260831092112 81 176 1.0 1.0 0.00 0.00 0.00 69 1015.4
20260831091552 81 175 0.0 1.0 0.00 0.00 0.00 68 1015.4
20260831091034 81 175 0.0 1.0 0.00 0.00 0.00 68 1015.3
20260831090533 81 175 0.0 2.0 0.00 0.00 0.00 67 1015.3
20260831090034 82 177 1.0 1.0 0.00 0.00 0.00 66 1015.3
20260831085554 82 179 0.0 1.0 0.00 0.00 0.00 66 1015.3
20260831085120 82 179 1.0 2.0 0.00 0.00 0.00 65 1015.1
20260831084600 82 175 1.0 1.0 0.00 0.00 0.00 64 1015.2
20260831084033 82 174 1.0 1.0 0.00 0.00 0.00 64 1015.3
20260831083533 82 177 1.0 1.0 0.00 0.00 0.00 64 1015.2
20260831083034 82 178 1.0 2.0 0.00 0.00 0.00 64 1015.3
20260831082533 82 180 1.0 2.0 0.00 0.00 0.00 64 1015.3
20260831082034 83 178 1.0 1.0 0.00 0.00 0.00 63 1015.3
20260831081534 83 182 1.0 2.0 0.00 0.00 0.00 63 1015.4
20260831081120 83 174 1.0 1.0 0.00 0.00 0.00 63 1015.3
20260831080600 83 183 1.0 2.0 0.00 0.00 0.00 62 1015.4
20260831080034 83 177 1.0 2.0 0.00 0.00 0.00 62 1015.3
20260831075533 83 175 1.0 3.0 0.00 0.00 0.00 62 1015.3
20260831075033 83 188 1.0 2.0 0.00 0.00 0.00 62 1015.2
20260831074617 83 186 1.0 2.0 0.00 0.00 0.00 62 1015.2
20260831074116 83 181 1.0 2.0 0.00 0.00 0.00 61 1015.2
20260831073614 83 180 1.0 2.0 0.00 0.00 0.00 61 1015.2
20260831073034 83 187 1.0 2.0 0.00 0.00 0.00 60 1015.1
20260831072534 82 176 1.0 1.0 0.00 0.00 0.00 61 1015.1
20260831072025 82 181 1.0 1.0 0.00 0.00 0.00 61 1015.1
20260831071608 81 176 1.0 2.0 0.00 0.00 0.00 62 1015.1
20260831071048 79 178 1.0 1.0 0.00 0.00 0.00 64 1015.0
20260831070533 79 0.0 0.0 0.00 0.00 0.00 65 1015.0
20260831070054 79 0.0 0.0 0.00 0.00 0.00 64 1015.2
20260831065533 79 174 0.0 1.0 0.00 0.00 0.00 64 1015.0
20260831065033 78 174 0.0 1.0 0.00 0.00 0.00 65 1015.2
20260831064616 78 0.0 0.0 0.00 0.00 0.00 65 1015.1
20260831064057 78 0.0 0.0 0.00 0.00 0.00 63 1015.0
20260831063533 78 0.0 0.0 0.00 0.00 0.00 62 1015.1
20260831063054 79 0.0 0.0 0.00 0.00 0.00 63 1015.0
20260831062614 79 0.0 0.0 0.00 0.00 0.00 63 1015.1
20260831062033 79 0.0 0.0 0.00 0.00 0.00 61 1015.1
20260831061554 80 167 0.0 1.0 0.00 0.00 0.00 60 1015.0
20260831061120 80 0.0 0.0 0.00 0.00 0.00 59 1015.1
20260831060600 80 0.0 0.0 0.00 0.00 0.00 58 1015.1
20260831060041 81 0.0 0.0 0.00 0.00 0.00 57 1015.1
20260831055521 81 168 0.0 1.0 0.00 0.00 0.00 57 1015.0
20260831055104 81 0.0 0.0 0.00 0.00 0.00 56 1015.0
20260831054545 81 168 0.0 1.0 0.00 0.00 0.00 56 1015.0
20260831054025 81 168 0.0 1.0 0.00 0.00 0.00 56 1015.0
20260831053608 81 169 0.0 1.0 0.00 0.00 0.00 56 1015.0
20260831053049 82 170 0.0 1.0 0.00 0.00 0.00 55 1015.1
20260831052549 82 0.0 0.0 0.00 0.00 0.00 54 1015.0
20260831052112 82 0.0 0.0 0.00 0.00 0.00 54 1014.9
20260831051553 82 172 0.0 1.0 0.00 0.00 0.00 54 1014.8
20260831051033 82 173 0.0 1.0 0.00 0.00 0.00 55 1014.8
20260831050616 82 0.0 0.0 0.00 0.00 0.00 56 1014.9
20260831050057 82 173 0.0 1.0 0.00 0.00 0.00 55 1014.9
20260831045534 82 0.0 0.0 0.00 0.00 0.00 55 1014.8
20260831045121 83 0.0 0.0 0.00 0.00 0.00 53 1014.8
20260831044600 83 172 0.0 1.0 0.00 0.00 0.00 53 1014.8
20260831044101 83 0.0 0.0 0.00 0.00 0.00 53 1014.8
20260831043521 83 163 0.0 1.0 0.00 0.00 0.00 54 1014.9
20260831043104 83 0.0 0.0 0.00 0.00 0.00 53 1014.8
20260831042544 83 0.0 0.0 0.00 0.00 0.00 52 1014.9
20260831042025 84 162 0.0 1.0 0.00 0.00 0.00 51 1014.8
20260831041608 83 0.0 0.0 0.00 0.00 0.00 50 1014.7
20260831041109 83 161 0.0 1.0 0.00 0.00 0.00 52 1014.6
20260831040549 84 0.0 0.0 0.00 0.00 0.00 51 1014.6
20260831040113 85 0.0 0.0 0.00 0.00 0.00 50 1014.7
20260831035553 85 171 0.0 1.0 0.00 0.00 0.00 48 1014.7
20260831035033 85 174 0.0 1.0 0.00 0.00 0.00 48 1014.7
20260831034636 85 174 0.0 1.0 0.00 0.00 0.00 48 1014.7
20260831034056 85 174 0.0 1.0 0.00 0.00 0.00 48 1014.6
20260831033534 84 173 0.0 1.0 0.00 0.00 0.00 50 1014.6
20260831033120 84 0.0 0.0 0.00 0.00 0.00 49 1014.7
20260831032600 85 0.0 0.0 0.00 0.00 0.00 49 1014.5
20260831032041 86 173 0.0 1.0 0.00 0.00 0.00 48 1014.5
20260831031522 86 0.0 0.0 0.00 0.00 0.00 48 1014.4
20260831031104 87 172 0.0 1.0 0.00 0.00 0.00 47 1014.3
20260831030544 87 174 1.0 1.0 0.00 0.00 0.00 45 1014.4
20260831030026 87 173 1.0 1.0 0.00 0.00 0.00 46 1014.3
20260831025609 86 164 1.0 1.0 0.00 0.00 0.00 47 1014.3
20260831025048 86 157 0.0 1.0 0.00 0.00 0.00 46 1014.2
20260831024530 86 158 0.0 1.0 0.00 0.00 0.00 46 1014.1
20260831024112 86 158 0.0 1.0 0.00 0.00 0.00 47 1014.2
20260831023552 86 158 0.0 1.0 0.00 0.00 0.00 47 1014.1
20260831023054 86 157 0.0 1.0 0.00 0.00 0.00 46 1014.0
20260831022616 86 157 0.0 1.0 0.00 0.00 0.00 47 1014.1
20260831022056 86 0.0 0.0 0.00 0.00 0.00 46 1013.9
20260831021535 86 0.0 0.0 0.00 0.00 0.00 47 1013.8
20260831021141 86 0.0 0.0 0.00 0.00 0.00 46 1013.8
20260831020600 86 0.0 0.0 0.00 0.00 0.00 46 1013.7
20260831020041 86 0.0 0.0 0.00 0.00 0.00 45 1013.6
20260831015521 87 0.0 0.0 0.00 0.00 0.00 45 1013.5
20260831015105 87 0.0 0.0 0.00 0.00 0.00 44 1013.6
20260831014545 87 173 0.0 1.0 0.00 0.00 0.00 44 1013.3
20260831014045 88 173 0.0 1.0 0.00 0.00 0.00 43 1013.4
20260831013608 88 0.0 0.0 0.00 0.00 0.00 43 1013.3
20260831013109 89 173 0.0 1.0 0.00 0.00 0.00 42 1013.4
20260831012534 89 173 0.0 1.0 0.00 0.00 0.00 42 1013.3
20260831012034 89 173 0.0 1.0 0.00 0.00 0.00 41 1013.1
20260831011615 89 173 0.0 1.0 0.00 0.00 0.00 41 1013.1
20260831011033 89 172 0.0 1.0 0.00 0.00 0.00 42 1013.2
20260831010534 90 0.0 0.0 0.00 0.00 0.00 41 1013.1
20260831010035 90 0.0 0.0 0.00 0.00 0.00 40 1013.1
20260831005522 91 0.0 0.0 0.00 0.00 0.00 40 1013.1
20260831005104 92 175 0.0 1.0 0.00 0.00 0.00 38 1013.1
20260831004534 94 175 0.0 1.0 0.00 0.00 0.00 37 1013.0
20260831004025 94 175 0.0 1.0 0.00 0.00 0.00 37 1013.0
20260831003609 95 177 0.0 1.0 0.00 0.00 0.00 37 1012.9
20260831003109 95 185 1.0 3.0 0.00 0.00 0.00 35 1013.0
20260831002550 95 180 1.0 2.0 0.00 0.00 0.00 36 1013.0
20260831002112 96 183 1.0 2.0 0.00 0.00 0.00 35 1013.0
20260831001553 96 179 1.0 3.0 0.00 0.00 0.00 35 1013.0
20260831001033 96 174 1.0 1.0 0.00 0.00 0.00 34 1013.0
20260831000616 96 173 1.0 1.0 0.00 0.00 0.00 34 1013.0
20260831000117 97 174 1.0 2.0 0.00 0.00 0.00 34 1013.1
20260830235534 97 188 1.0 3.0 0.00 0.00 0.00 32 1013.1
20260830235141 98 199 1.0 2.0 0.00 0.00 0.00 32 1013.1
20260830234621 99 186 1.0 3.0 0.00 0.00 0.00 31 1013.1
20260830234034 99 171 1.0 1.0 0.00 0.00 0.00 31 1013.0
20260830233521 99 185 1.0 2.0 0.00 0.00 0.00 31 1013.1
20260830233105 100 198 1.0 2.0 0.00 0.00 0.00 31 1013.1
20260830232545 100 180 1.0 2.0 0.00 0.00 0.00 30 1013.0
20260830232025 101 180 1.0 2.0 0.00 0.00 0.00 30 1012.9
20260830231609 100 181 1.0 2.0 0.00 0.00 0.00 31 1013.1
20260830231049 101 185 2.0 3.0 0.00 0.00 0.00 30 1013.1
20260830230530 101 181 2.0 3.0 0.00 0.00 0.00 30 1013.1
20260830230113 101 157 1.0 2.0 0.00 0.00 0.00 30 1013.1
20260830225613 101 192 2.0 2.0 0.00 0.00 0.00 30 1013.2
20260830225033 101 198 2.0 5.0 0.00 0.00 0.00 31 1013.3
20260830224530 101 184 2.0 3.0 0.00 0.00 0.00 31 1013.2
20260830224113 101 177 2.0 3.0 0.00 0.00 0.00 30 1013.1
20260830223553 102 192 2.0 6.0 0.00 0.00 0.00 30 1013.2
20260830223034 102 185 2.0 3.0 0.00 0.00 0.00 29 1013.3